QPF
0.02 0.02 0.02 0.03 0.03 0.02 0.02 0.02 0.02 0.01 0.01 0.01 0.00 0.00 0.00 0.00 0.00 0.00 0.00 0.00 0.00 0.00 0.00 0.00 0.00 0.00 0.00 0.00 0.00 0.00 0.00 0.00 0.01 0.00 0.00 0.00 0.00 0.00 0.00 0.00 0.00 0.00 0.00
0.02 0.01 0.02 0.02 0.02 0.02 0.02 0.02 0.02 0.01 0.01 0.01 0.01 0.01 0.01 0.01 0.00 0.00 0.00 0.00 0.00 0.00 0.00 0.00 0.00 0.00 0.00 0.00 0.00 0.00 0.00 0.00 0.01 0.00 0.00 0.00 0.00 0.00 0.00 0.00 0.00 0.00 0.00
0.01 0.01 0.01 0.02 0.02 0.03 0.02 0.02 0.02 0.02 0.02 0.02 0.02 0.01 0.01 0.01 0.00 0.00 0.00 0.00 0.00 0.00 0.00 0.00 0.00 0.00 0.00 0.00 0.00 0.00 0.00 0.00 0.01 0.01 0.00 0.00 0.00 0.00 0.00 0.00 0.00 0.01 0.01
0.01 0.02 0.02 0.03 0.03 0.03 0.04 0.04 0.04 0.04 0.03 0.03 0.02 0.01 0.01 0.01 0.01 0.00 0.00 0.00 0.00 0.00 0.00 0.00 0.00 0.00 0.00 0.00 0.00 0.00 0.00 0.00 0.01 0.01 0.01 0.00 0.00 0.00 0.01 0.01 0.01 0.01 0.01
0.02 0.03 0.04 0.05 0.05 0.06 0.06 0.06 0.06 0.05 0.04 0.03 0.03 0.02 0.01 0.01 0.00 0.00 0.00 0.00 0.00 0.00 0.00 0.00 0.00 0.00 0.01 0.01 0.01 0.01 0.01 0.01 0.01 0.01 0.01 0.01 0.01 0.01 0.01 0.01 0.02 0.01 0.00
0.07 0.08 0.08 0.08 0.08 0.08 0.08 0.07 0.06 0.05 0.04 0.02 0.01 0.01 0.00 0.00 0.00 0.00 0.00 0.00 0.00 0.00 0.00 0.00 0.00 0.00 0.01 0.01 0.01 0.02 0.03 0.03 0.03 0.03 0.03 0.03 0.02 0.02 0.02 0.02 0.03 0.03 0.02
0.11 0.12 0.12 0.11 0.10 0.09 0.08 0.07 0.06 0.04 0.02 0.01 0.01 0.00 0.00 0.00 0.00 0.00 0.00 0.00 0.00 0.00 0.00 0.00 0.00 0.00 0.01 0.01 0.01 0.01 0.01 0.02 0.03 0.04 0.04 0.03 0.03 0.03 0.04 0.04 0.04 0.04 0.03
0.14 0.15 0.14 0.12 0.09 0.08 0.07 0.05 0.03 0.02 0.01 0.00 0.00 0.00 0.00 0.00 0.00 0.00 0.00 0.00 0.00 0.00 0.00 0.00 0.00 0.00 0.00 0.01 0.01 0.01 0.01 0.01 0.02 0.02 0.02 0.02 0.02 0.03 0.04 0.05 0.05 0.04 0.03
0.13 0.11 0.08 0.07 0.06 0.04 0.03 0.02 0.01 0.01 0.01 0.00 0.00 0.00 0.00 0.00 0.00 0.00 0.00 0.00 0.00 0.00 0.00 0.00 0.00 0.00 0.01 0.01 0.01 0.01 0.01 0.01 0.01 0.02 0.02 0.02 0.03 0.05 0.05 0.05 0.05 0.06 0.05
0.07 0.05 0.04 0.03 0.03 0.02 0.01 0.01 0.01 0.01 0.00 0.00 0.00 0.00 0.00 0.00 0.00 0.00 0.00 0.00 0.00 0.00 0.00 0.00 0.01 0.01 0.01 0.01 0.01 0.02 0.01 0.01 0.01 0.01 0.02 0.02 0.03 0.04 0.05 0.05 0.06 0.06 0.06
0.03 0.02 0.02 0.01 0.01 0.01 0.00 0.00 0.00 0.00 0.00 0.00 0.00 0.00 0.00 0.00 0.00 0.00 0.00 0.00 0.00 0.00 0.00 0.01 0.01 0.01 0.01 0.02 0.02 0.01 0.01 0.02 0.02 0.02 0.01 0.01 0.02 0.02 0.03 0.04 0.05 0.06 0.06
0.01 0.01 0.01 0.01 0.00 0.00 0.00 0.00 0.00 0.00 0.00 0.00 0.00 0.00 0.00 0.00 0.00 0.00 0.00 0.00 0.00 0.01 0.01 0.01 0.01 0.01 0.01 0.02 0.01 0.01 0.02 0.02 0.02 0.02 0.02 0.02 0.02 0.02 0.03 0.03 0.04 0.05 0.05
0.01 0.01 0.00 0.00 0.00 0.00 0.00 0.00 0.00 0.00 0.00 0.00 0.00 0.00 0.00 0.00 0.00 0.00 0.00 0.00 0.01 0.01 0.02 0.02 0.02 0.02 0.01 0.01 0.01 0.01 0.02 0.01 0.02 0.02 0.02 0.03 0.02 0.02 0.03 0.03 0.03 0.04 0.03
0.01 0.00 0.00 0.00 0.00 0.00 0.00 0.00 0.00 0.00 0.00 0.00 0.00 0.00 0.00 0.00 0.00 0.00 0.00 0.01 0.01 0.01 0.02 0.02 0.02 0.02 0.01 0.01 0.01 0.01 0.02 0.02 0.02 0.03 0.03 0.03 0.03 0.03 0.03 0.03 0.03 0.02 0.03
0.00 0.01 0.00 0.00 0.00 0.00 0.00 0.00 0.00 0.00 0.00 0.00 0.00 0.00 0.00 0.00 0.00 0.01 0.01 0.01 0.01 0.02 0.02 0.02 0.01 0.01 0.02 0.02 0.02 0.02 0.02 0.03 0.03 0.04 0.04 0.04 0.03 0.03 0.03 0.03 0.02 0.02 0.02
0.00 0.00 0.00 0.00 0.00 0.00 0.00 0.00 0.00 0.00 0.00 0.00 0.00 0.00 0.00 0.00 0.00 0.01 0.01 0.02 0.02 0.02 0.02 0.01 0.02 0.02 0.03 0.03 0.03 0.03 0.03 0.04 0.04 0.04 0.04 0.04 0.03 0.03 0.02 0.02 0.02 0.02 0.02
0.00 0.00 0.00 0.00 0.00 0.00 0.01 0.01 0.01 0.00 0.00 0.00 0.00 0.00 0.00 0.00 0.00 0.01 0.01 0.02 0.02 0.01 0.01 0.02 0.03 0.03 0.04 0.04 0.03 0.03 0.04 0.04 0.05 0.04 0.04 0.03 0.02 0.02 0.01 0.02 0.02 0.02 0.02
0.00 0.00 0.00 0.00 0.00 0.00 0.01 0.01 0.01 0.01 0.01 0.01 0.00 0.00 0.00 0.01 0.01 0.01 0.01 0.01 0.01 0.01 0.01 0.02 0.03 0.03 0.04 0.04 0.04 0.03 0.04 0.04 0.05 0.04 0.04 0.03 0.02 0.01 0.01 0.01 0.01 0.01 0.02
0.00 0.00 0.00 0.00 0.00 0.00 0.00 0.00 0.01 0.01 0.01 0.00 0.00 0.00 0.01 0.01 0.01 0.01 0.01 0.01 0.01 0.02 0.02 0.03 0.03 0.03 0.03 0.03 0.04 0.04 0.04 0.04 0.04 0.04 0.03 0.02 0.01 0.01 0.01 0.01 0.01 0.01 0.01
0.00 0.00 0.00 0.00 0.00 0.00 0.00 0.00 0.00 0.00 0.00 0.00 0.00 0.00 0.01 0.01 0.00 0.01 0.01 0.01 0.02 0.02 0.03 0.03 0.03 0.03 0.03 0.03 0.03 0.04 0.04 0.03 0.03 0.03 0.02 0.02 0.01 0.01 0.00 0.00 0.00 0.00 0.00
0.00 0.00 0.00 0.00 0.00 0.00 0.00 0.00 0.00 0.00 0.00 0.01 0.01 0.01 0.02 0.01 0.01 0.01 0.02 0.02 0.02 0.03 0.04 0.04 0.03 0.03 0.02 0.02 0.02 0.03 0.02 0.02 0.03 0.03 0.02 0.02 0.01 0.00 0.00 0.00 0.00 0.00 0.00
0.00 0.00 0.00 0.00 0.00 0.00 0.00 0.00 0.00 0.00 0.00 0.01 0.01 0.02 0.03 0.02 0.02 0.02 0.03 0.03 0.03 0.03 0.03 0.04 0.04 0.03 0.02 0.01 0.02 0.02 0.02 0.01 0.02 0.02 0.02 0.01 0.01 0.00 0.00 0.00 0.00 0.00 0.00
0.00 0.00 0.00 0.00 0.00 0.00 0.00 0.00 0.00 0.00 0.00 0.00 0.01 0.01 0.02 0.02 0.02 0.02 0.03 0.03 0.03 0.03 0.02 0.03 0.03 0.02 0.01 0.01 0.01 0.01 0.01 0.01 0.01 0.01 0.01 0.01 0.01 0.00 0.00 0.00 0.00 0.00 0.00
0.00 0.00 0.00 0.00 0.00 0.00 0.00 0.00 0.00 0.00 0.00 0.00 0.00 0.01 0.02 0.02 0.02 0.03 0.03 0.03 0.02 0.02 0.01 0.02 0.02 0.01 0.01 0.00 0.00 0.00 0.00 0.01 0.01 0.01 0.01 0.01 0.01 0.00 0.00 0.00 0.00 0.00 0.00
0.00 0.00 0.00 0.00 0.00 0.00 0.00 0.00 0.00 0.00 0.00 0.00 0.00 0.01 0.01 0.02 0.02 0.02 0.02 0.02 0.02 0.02 0.01 0.01 0.01 0.01 0.00 0.00 0.00 0.00 0.00 0.00 0.00 0.00 0.00 0.00 0.00 0.00 0.00 0.00 0.00 0.00 0.00
0.00 0.00 0.00 0.00 0.00 0.00 0.00 0.00 0.00 0.00 0.00 0.00 0.00 0.00 0.00 0.01 0.01 0.01 0.01 0.01 0.01 0.01 0.01 0.00 0.00 0.00 0.00 0.00 0.00 0.00 0.00 0.00 0.00 0.00 0.00 0.00 0.00 0.00 0.00 0.00 0.00 0.00 0.00
MSLP
1015.69 1015.89 1016.12 1016.37 1016.63 1016.87 1017.10 1017.31 1017.53 1017.76 1018.02 1018.31 1018.62 1018.94 1019.25 1019.52 1019.74 1019.90 1020.01 1020.05 1020.06 1020.03 1019.98 1019.90 1019.79 1019.64 1019.45 1019.21 1018.93 1018.61 1018.27 1017.93 1017.61 1017.32 1017.04 1016.78 1016.52 1016.24 1015.91 1015.53 1015.10 1014.63 1014.14
1016.59 1016.77 1016.97 1017.17 1017.38 1017.57 1017.75 1017.93 1018.11 1018.31 1018.54 1018.81 1019.09 1019.38 1019.66 1019.90 1020.10 1020.24 1020.31 1020.32 1020.27 1020.18 1020.04 1019.87 1019.66 1019.41 1019.13 1018.81 1018.47 1018.13 1017.79 1017.47 1017.17 1016.90 1016.64 1016.38 1016.09 1015.77 1015.39 1014.95 1014.46 1013.94 1013.40
1017.49 1017.68 1017.87 1018.05 1018.22 1018.37 1018.52 1018.65 1018.80 1018.97 1019.16 1019.39 1019.63 1019.88 1020.12 1020.33 1020.49 1020.58 1020.61 1020.58 1020.48 1020.32 1020.10 1019.84 1019.54 1019.20 1018.84 1018.46 1018.08 1017.71 1017.36 1017.05 1016.76 1016.50 1016.25 1015.97 1015.66 1015.29 1014.86 1014.36 1013.81 1013.24 1012.66
1018.36 1018.58 1018.77 1018.94 1019.08 1019.20 1019.30 1019.40 1019.51 1019.65 1019.80 1019.99 1020.19 1020.39 1020.58 1020.74 1020.85 1020.89 1020.88 1020.79 1020.63 1020.40 1020.12 1019.78 1019.41 1018.99 1018.56 1018.12 1017.70 1017.30 1016.94 1016.62 1016.33 1016.07 1015.80 1015.51 1015.17 1014.76 1014.28 1013.74 1013.15 1012.53 1011.92
1019.18 1019.41 1019.61 1019.76 1019.88 1019.97 1020.04 1020.10 1020.18 1020.28 1020.40 1020.54 1020.70 1020.85 1020.98 1021.08 1021.13 1021.13 1021.05 1020.91 1020.69 1020.41 1020.06 1019.67 1019.22 1018.75 1018.26 1017.77 1017.30 1016.87 1016.48 1016.14 1015.84 1015.55 1015.26 1014.95 1014.58 1014.14 1013.64 1013.07 1012.45 1011.82 1011.19
1019.91 1020.15 1020.34 1020.47 1020.56 1020.62 1020.66 1020.70 1020.75 1020.82 1020.91 1021.01 1021.12 1021.23 1021.30 1021.34 1021.33 1021.25 1021.12 1020.91 1020.64 1020.31 1019.91 1019.46 1018.97 1018.45 1017.91 1017.38 1016.87 1016.40 1015.97 1015.59 1015.25 1014.94 1014.63 1014.29 1013.90 1013.46 1012.95 1012.38 1011.77 1011.14 1010.53
1020.55 1020.77 1020.93 1021.04 1021.10 1021.13 1021.15 1021.17 1021.20 1021.25 1021.32 1021.39 1021.46 1021.51 1021.53 1021.50 1021.41 1021.27 1021.07 1020.81 1020.48 1020.10 1019.66 1019.18 1018.65 1018.10 1017.53 1016.96 1016.41 1015.89 1015.43 1015.01 1014.63 1014.28 1013.94 1013.59 1013.20 1012.76 1012.27 1011.73 1011.16 1010.57 1009.98
1021.07 1021.25 1021.38 1021.46 1021.50 1021.51 1021.52 1021.53 1021.56 1021.61 1021.65 1021.70 1021.73 1021.73 1021.68 1021.58 1021.42 1021.21 1020.93 1020.61 1020.23 1019.81 1019.34 1018.83 1018.29 1017.71 1017.12 1016.53 1015.95 1015.41 1014.90 1014.44 1014.03 1013.65 1013.29 1012.93 1012.56 1012.15 1011.70 1011.21 1010.69 1010.16 1009.62
1021.48 1021.62 1021.72 1021.77 1021.80 1021.80 1021.81 1021.83 1021.86 1021.91 1021.95 1021.97 1021.96 1021.90 1021.79 1021.61 1021.38 1021.09 1020.74 1020.36 1019.94 1019.48 1018.99 1018.47 1017.92 1017.35 1016.75 1016.15 1015.56 1014.99 1014.47 1013.98 1013.54 1013.15 1012.78 1012.42 1012.07 1011.70 1011.30 1010.88 1010.43 1009.96 1009.48
1021.79 1021.90 1021.97 1022.01 1022.03 1022.05 1022.07 1022.10 1022.15 1022.20 1022.23 1022.23 1022.18 1022.06 1021.88 1021.63 1021.32 1020.96 1020.55 1020.11 1019.65 1019.17 1018.67 1018.15 1017.61 1017.04 1016.46 1015.87 1015.29 1014.72 1014.18 1013.68 1013.23 1012.83 1012.46 1012.12 1011.80 1011.47 1011.13 1010.77 1010.39 1009.98 1009.54
1022.01 1022.10 1022.16 1022.20 1022.24 1022.28 1022.33 1022.39 1022.45 1022.50 1022.52 1022.49 1022.40 1022.23 1021.99 1021.67 1021.29 1020.85 1020.39 1019.91 1019.41 1018.92 1018.42 1017.91 1017.38 1016.85 1016.29 1015.73 1015.16 1014.60 1014.07 1013.58 1013.13 1012.73 1012.37 1012.04 1011.74 1011.45 1011.16 1010.86 1010.53 1010.17 1009.77
1022.17 1022.25 1022.32 1022.38 1022.44 1022.52 1022.60 1022.69 1022.76 1022.82 1022.83 1022.77 1022.64 1022.42 1022.11 1021.73 1021.29 1020.80 1020.29 1019.77 1019.26 1018.76 1018.27 1017.78 1017.28 1016.77 1016.25 1015.72 1015.18 1014.65 1014.13 1013.65 1013.21 1012.81 1012.46 1012.15 1011.87 1011.61 1011.35 1011.08 1010.79 1010.46 1010.09
1022.27 1022.36 1022.45 1022.54 1022.65 1022.76 1022.88 1022.99 1023.09 1023.14 1023.13 1023.05 1022.88 1022.61 1022.26 1021.83 1021.34 1020.81 1020.28 1019.74 1019.22 1018.72 1018.24 1017.77 1017.30 1016.82 1016.34 1015.84 1015.33 1014.82 1014.32 1013.85 1013.41 1013.02 1012.67 1012.36 1012.09 1011.84 1011.60 1011.36 1011.09 1010.79 1010.43
1022.32 1022.43 1022.56 1022.69 1022.84 1023.00 1023.15 1023.29 1023.39 1023.44 1023.41 1023.30 1023.10 1022.79 1022.40 1021.94 1021.43 1020.89 1020.34 1019.80 1019.29 1018.80 1018.33 1017.88 1017.43 1016.98 1016.52 1016.04 1015.55 1015.06 1014.58 1014.11 1013.68 1013.28 1012.93 1012.61 1012.34 1012.09 1011.85 1011.62 1011.37 1011.09 1010.76
1022.34 1022.48 1022.64 1022.82 1023.01 1023.20 1023.38 1023.53 1023.64 1023.68 1023.64 1023.50 1023.27 1022.95 1022.54 1022.07 1021.55 1021.01 1020.47 1019.94 1019.44 1018.97 1018.51 1018.08 1017.64 1017.21 1016.76 1016.29 1015.81 1015.33 1014.85 1014.38 1013.94 1013.53 1013.17 1012.84 1012.55 1012.30 1012.06 1011.84 1011.61 1011.35 1011.06
1022.32 1022.49 1022.69 1022.91 1023.14 1023.36 1023.56 1023.72 1023.82 1023.84 1023.79 1023.63 1023.39 1023.05 1022.65 1022.18 1021.68 1021.17 1020.65 1020.15 1019.67 1019.21 1018.77 1018.34 1017.91 1017.48 1017.03 1016.57 1016.09 1015.60 1015.11 1014.64 1014.18 1013.76 1013.37 1013.03 1012.73 1012.47 1012.24 1012.03 1011.83 1011.62 1011.38
1022.29 1022.49 1022.72 1022.97 1023.22 1023.46 1023.67 1023.83 1023.92 1023.93 1023.86 1023.69 1023.44 1023.11 1022.72 1022.28 1021.81 1021.33 1020.85 1020.39 1019.93 1019.50 1019.07 1018.65 1018.22 1017.78 1017.32 1016.85 1016.36 1015.86 1015.36 1014.87 1014.41 1013.97 1013.57 1013.22 1012.91 1012.65 1012.43 1012.25 1012.09 1011.93 1011.78
1022.27 1022.48 1022.73 1023.00 1023.27 1023.51 1023.72 1023.87 1023.95 1023.94 1023.86 1023.69 1023.44 1023.13 1022.76 1022.36 1021.93 1021.50 1021.07 1020.64 1020.22 1019.81 1019.39 1018.97 1018.54 1018.09 1017.62 1017.14 1016.63 1016.13 1015.62 1015.12 1014.64 1014.20 1013.79 1013.44 1013.13 1012.89 1012.69 1012.54 1012.43 1012.35 1012.29
1022.26 1022.48 1022.74 1023.02 1023.29 1023.54 1023.73 1023.87 1023.93 1023.91 1023.81 1023.64 1023.41 1023.11 1022.78 1022.42 1022.05 1021.67 1021.28 1020.90 1020.51 1020.12 1019.72 1019.30 1018.87 1018.41 1017.94 1017.44 1016.93 1016.41 1015.90 1015.40 1014.92 1014.48 1014.08 1013.73 1013.44 1013.21 1013.05 1012.94 1012.89 1012.88 1012.91
1022.29 1022.52 1022.78 1023.05 1023.32 1023.55 1023.73 1023.85 1023.89 1023.86 1023.76 1023.59 1023.37 1023.10 1022.81 1022.49 1022.17 1021.84 1021.50 1021.15 1020.80 1020.43 1020.04 1019.63 1019.20 1018.74 1018.25 1017.75 1017.24 1016.73 1016.21 1015.72 1015.25 1014.82 1014.43 1014.10 1013.83 1013.62 1013.49 1013.43 1013.44 1013.49 1013.60
1022.37 1022.59 1022.84 1023.11 1023.36 1023.57 1023.73 1023.83 1023.86 1023.81 1023.71 1023.55 1023.35 1023.11 1022.86 1022.59 1022.30 1022.02 1021.72 1021.41 1021.08 1020.73 1020.36 1019.95 1019.52 1019.06 1018.58 1018.08 1017.57 1017.05 1016.55 1016.07 1015.61 1015.20 1014.83 1014.51 1014.27 1014.09 1013.99 1013.96 1014.01 1014.12 1014.28
1022.50 1022.71 1022.94 1023.19 1023.42 1023.61 1023.75 1023.83 1023.85 1023.81 1023.71 1023.57 1023.38 1023.18 1022.96 1022.72 1022.48 1022.23 1021.96 1021.68 1021.37 1021.03 1020.67 1020.26 1019.83 1019.37 1018.89 1018.39 1017.88 1017.38 1016.89 1016.42 1015.97 1015.57 1015.22 1014.93 1014.70 1014.54 1014.46 1014.45 1014.53 1014.66 1014.86
1022.68 1022.86 1023.07 1023.30 1023.50 1023.68 1023.81 1023.88 1023.90 1023.86 1023.77 1023.65 1023.49 1023.32 1023.13 1022.93 1022.72 1022.49 1022.24 1021.97 1021.68 1021.34 1020.97 1020.57 1020.13 1019.67 1019.18 1018.68 1018.18 1017.68 1017.19 1016.73 1016.29 1015.90 1015.56 1015.28 1015.06 1014.91 1014.84 1014.85 1014.92 1015.07 1015.26
1022.87 1023.04 1023.23 1023.42 1023.61 1023.78 1023.90 1023.97 1024.00 1023.98 1023.91 1023.82 1023.69 1023.55 1023.39 1023.21 1023.03 1022.82 1022.58 1022.32 1022.02 1021.68 1021.30 1020.89 1020.44 1019.96 1019.46 1018.96 1018.44 1017.94 1017.45 1016.99 1016.56 1016.17 1015.83 1015.54 1015.33 1015.18 1015.11 1015.11 1015.18 1015.31 1015.50
1023.08 1023.22 1023.39 1023.57 1023.75 1023.91 1024.03 1024.12 1024.16 1024.17 1024.13 1024.07 1023.98 1023.87 1023.74 1023.59 1023.42 1023.22 1022.99 1022.73 1022.42 1022.07 1021.67 1021.24 1020.77 1020.28 1019.76 1019.23 1018.71 1018.19 1017.69 1017.21 1016.78 1016.38 1016.04 1015.75 1015.53 1015.38 1015.30 1015.29 1015.34 1015.46 1015.62
1023.29 1023.42 1023.58 1023.75 1023.92 1024.08 1024.22 1024.32 1024.40 1024.43 1024.44 1024.41 1024.36 1024.29 1024.19 1024.06 1023.90 1023.71 1023.49 1023.21 1022.89 1022.52 1022.11 1021.65 1021.16 1020.64 1020.10 1019.55 1019.00 1018.46 1017.95 1017.46 1017.01 1016.60 1016.25 1015.96 1015.73 1015.57 1015.48 1015.46 1015.50 1015.60 1015.74
Thickness
5644 5639 5633 5626 5621 5615 5608 5601 5595 5588 5582 5575 5569 5563 5557 5551 5545 5538 5531 5526 5520 5515 5510 5506 5501 5497 5491 5486 5482 5476 5470 5463 5464 5465 5452 5446 5440 5435 5433 5430 5429 5429 5430
5629 5623 5617 5611 5605 5598 5591 5585 5579 5572 5566 5559 5554 5547 5540 5533 5527 5521 5515 5509 5504 5499 5494 5490 5486 5482 5477 5472 5467 5461 5456 5449 5444 5445 5440 5431 5427 5423 5422 5421 5421 5421 5422
5613 5606 5599 5593 5586 5579 5572 5567 5561 5555 5549 5543 5537 5529 5522 5515 5509 5503 5498 5493 5488 5483 5479 5475 5471 5467 5463 5459 5453 5448 5443 5438 5431 5428 5427 5422 5419 5417 5416 5416 5416 5416 5416
5594 5587 5579 5572 5567 5560 5554 5548 5543 5537 5531 5525 5519 5512 5505 5498 5492 5488 5483 5478 5473 5469 5466 5462 5459 5455 5451 5447 5442 5437 5432 5427 5422 5418 5418 5416 5414 5414 5412 5412 5413 5412 5413
5573 5566 5558 5552 5547 5542 5536 5530 5524 5519 5513 5507 5501 5494 5488 5483 5478 5473 5468 5464 5459 5456 5453 5450 5447 5445 5442 5437 5433 5429 5424 5420 5417 5415 5415 5414 5413 5412 5410 5410 5410 5411 5413
5552 5545 5539 5533 5528 5522 5516 5510 5505 5500 5495 5490 5484 5478 5473 5469 5464 5459 5455 5450 5447 5443 5441 5438 5436 5434 5431 5427 5425 5422 5420 5417 5416 5415 5415 5414 5413 5412 5411 5410 5410 5411 5414
5533 5526 5521 5515 5509 5504 5499 5493 5488 5483 5478 5473 5468 5463 5458 5454 5450 5445 5442 5438 5434 5431 5429 5427 5426 5424 5421 5419 5418 5418 5417 5416 5416 5415 5415 5415 5413 5413 5411 5411 5411 5411 5412
5515 5509 5504 5498 5492 5487 5482 5477 5472 5468 5463 5458 5453 5448 5444 5440 5437 5432 5429 5426 5423 5421 5420 5418 5417 5416 5416 5414 5414 5415 5416 5417 5417 5416 5415 5415 5414 5413 5411 5411 5411 5412 5413
5498 5493 5488 5482 5477 5472 5467 5463 5458 5453 5448 5444 5439 5435 5431 5427 5424 5420 5418 5414 5412 5412 5412 5412 5412 5411 5411 5410 5411 5413 5415 5416 5417 5417 5417 5416 5415 5414 5412 5412 5412 5411 5413
5484 5479 5474 5469 5464 5459 5454 5449 5444 5439 5434 5430 5426 5422 5419 5415 5412 5410 5408 5405 5404 5405 5407 5408 5408 5408 5408 5409 5409 5411 5413 5415 5416 5418 5418 5418 5416 5415 5413 5411 5410 5410 5411
5472 5467 5462 5457 5451 5446 5440 5435 5430 5425 5420 5416 5412 5409 5406 5404 5402 5401 5400 5398 5398 5399 5402 5404 5405 5406 5407 5409 5410 5412 5413 5415 5416 5417 5418 5417 5417 5415 5413 5411 5410 5408 5409
5461 5455 5450 5445 5440 5434 5427 5421 5416 5411 5406 5401 5398 5396 5394 5394 5393 5393 5393 5394 5394 5396 5399 5401 5403 5405 5408 5410 5412 5414 5415 5417 5418 5418 5418 5418 5417 5416 5414 5412 5411 5409 5407
5450 5443 5438 5433 5427 5421 5414 5408 5402 5397 5392 5389 5386 5384 5384 5385 5385 5387 5388 5390 5393 5395 5397 5400 5403 5406 5409 5411 5413 5415 5416 5417 5418 5419 5419 5419 5418 5416 5415 5414 5413 5411 5410
5440 5433 5427 5421 5414 5408 5402 5396 5390 5385 5381 5379 5377 5375 5376 5377 5378 5380 5383 5386 5390 5393 5396 5400 5403 5406 5408 5411 5413 5415 5417 5418 5419 5420 5420 5420 5419 5418 5416 5415 5414 5413 5411
5431 5424 5418 5411 5404 5397 5392 5386 5382 5378 5375 5372 5370 5369 5370 5372 5373 5375 5377 5382 5386 5390 5394 5398 5401 5404 5406 5409 5412 5414 5417 5419 5420 5421 5421 5421 5420 5419 5417 5415 5414 5413 5411
5422 5415 5408 5401 5395 5389 5383 5378 5376 5373 5371 5369 5368 5367 5367 5368 5370 5373 5377 5381 5385 5389 5393 5396 5399 5402 5404 5407 5410 5413 5417 5419 5421 5422 5422 5421 5420 5419 5417 5416 5414 5412 5411
5414 5407 5400 5394 5388 5383 5378 5374 5370 5368 5367 5366 5365 5365 5365 5366 5368 5372 5376 5381 5384 5388 5391 5394 5397 5400 5403 5406 5409 5413 5416 5419 5422 5423 5422 5421 5420 5418 5417 5416 5414 5412 5411
5407 5401 5394 5387 5382 5378 5374 5370 5366 5364 5362 5361 5363 5363 5364 5366 5368 5371 5375 5380 5384 5387 5389 5392 5395 5398 5401 5405 5409 5413 5417 5420 5422 5423 5423 5421 5420 5418 5416 5415 5413 5412 5410
5401 5394 5388 5382 5378 5374 5370 5367 5364 5362 5360 5359 5359 5361 5363 5365 5368 5371 5375 5378 5381 5384 5387 5391 5394 5397 5401 5405 5409 5413 5416 5419 5422 5423 5423 5423 5421 5419 5417 5415 5413 5411 5410
5398 5392 5386 5379 5375 5371 5368 5365 5362 5360 5359 5358 5358 5359 5362 5365 5368 5371 5374 5377 5381 5384 5387 5390 5393 5397 5401 5405 5409 5413 5417 5420 5422 5424 5424 5425 5423 5421 5419 5417 5414 5412 5410
5395 5389 5384 5378 5373 5370 5367 5364 5362 5360 5359 5359 5359 5360 5362 5365 5368 5371 5374 5378 5381 5385 5388 5391 5394 5397 5401 5405 5409 5413 5417 5420 5422 5424 5426 5427 5426 5425 5422 5420 5417 5414 5411
5394 5388 5382 5376 5373 5370 5367 5365 5363 5362 5361 5361 5361 5363 5365 5367 5370 5373 5377 5380 5383 5386 5389 5392 5395 5398 5402 5405 5409 5414 5417 5420 5422 5425 5427 5428 5429 5428 5426 5423 5420 5417 5414
5393 5387 5381 5377 5374 5372 5369 5367 5365 5364 5363 5363 5364 5365 5367 5370 5373 5376 5379 5382 5386 5389 5391 5394 5397 5401 5404 5408 5411 5414 5417 5420 5423 5425 5428 5430 5431 5431 5429 5427 5424 5421 5418
5393 5387 5381 5377 5375 5372 5370 5368 5367 5366 5366 5366 5367 5368 5370 5372 5376 5379 5382 5385 5388 5391 5393 5396 5399 5402 5406 5410 5414 5418 5421 5424 5428 5430 5432 5433 5434 5433 5432 5430 5427 5425 5421
5393 5388 5383 5380 5377 5375 5373 5371 5370 5370 5370 5370 5370 5371 5373 5375 5378 5381 5384 5387 5390 5392 5395 5398 5401 5404 5408 5412 5417 5421 5425 5429 5432 5434 5436 5436 5436 5435 5434 5432 5430 5427 5425
5395 5391 5386 5383 5380 5378 5377 5375 5374 5374 5373 5373 5373 5374 5375 5377 5379 5382 5384 5387 5390 5393 5396 5399 5402 5406 5410 5415 5419 5424 5429 5432 5435 5437 5438 5438 5438 5437 5436 5434 5433 5430 5428